Location: Quedlinburg
(51.7921°N, 11.1414°E)
Time: 13:35:47
(UTC+02:00)

RS-15 - Pass Details

Date: 19 March 2026
Orbit: 1893 x 2152 km, 64.8° (Epoch: 22 April)

Event Time Altitude Azimuth Distance (km) Brightness Sun altitude
Rises 22:41:07 0° 261° (W) 5,281 10.6 -34.2°
Reaches altitude 10° 22:44:33 10° 267° (W) 4,299 10.1 -34.5°
Maximum altitude 22:55:07 48° 341° (NNW) 2,416 8.7 -35.3°
Drops below altitude 10° 23:06:09 10° 54° (NE) 4,474 10.0 -36.0°
Sets 23:09:50 0° 61° (ENE) 5,511 10.5 -36.2°
